Tracking 35274 objects as of 11-Sep-2026
HD Live streaming from Space Station
objects crossing your sky now

SL-7 DEB


SL-7 DEB is no longer on orbit


NORAD ID: 3703
Int'l Code: 1968-117V
Launch date: December 19, 1968
Source: Commonwealth of Independent States (former USSR) (CIS)
Launch site: PLESETSK MISSILE AND SPACE COMPLEX (PKMTR)
Decay date: 1969-02-17

Note: This is SATELLITE DEBRIS
Your satellite tracking list
Your tracking list is empty




NASA's NSSDC Master Catalog

Two Line Element Set (TLE):
1 03703U 68117  V 69045.12816163  .04002185 +00000-0 +00000-0 0  9998
2 03703 071.0582 299.6389 0048208 338.7267 021.1835 16.12746182003283
Source of the keplerian elements: AFSPC